Eastover, SC

1:53 AM EDT on March 24, 2017 (GMT -0400)
McEntire Angs

Weather History for KMMT - June, 2013

Change the Weather History Date:

Friday, June 21, 2013

  Actual Average Record
Temperature  
Mean Temperature 74 °F -  
Max Temperature 85 °F 86 °F 100 °F (2011)
Min Temperature 64 °F 68 °F 62 °F (1999)
Cooling Degree Days 9    
Growing Degree Days 24 (Base 50)    
Moisture  
Dew Point 58 °F    
Average Humidity 60    
Maximum Humidity 85    
Minimum Humidity 33    
Precipitation  
Precipitation 0.00 in - - ()
Sea Level Pressure  
Sea Level Pressure 30.20 in    
Wind  
Wind Speed 7 mph (NE)    
Max Wind Speed 13 mph    
Max Gust Speed -    
Visibility 10 miles    
Events      
Averages and records for this station are not official NWS values.
T = Trace of Precipitation, MM = Missing Value Source: NWS Daily Summary

Daily Weather History Graph

Daily Weather History Graph

Search for Another Location

Airport or City:

Trip Planner

Search our weather history database for the weather conditions in past years. The results will help you decide how hot, cold, wet, or windy it might be!

Date:

Astronomy

Jun. 21, 2013 Rise Set
Actual Time 6:12 AM EDT 8:37 PM EDT
Civil Twilight 5:43 AM EDT 9:06 PM EDT
Nautical Twilight 5:07 AM EDT 9:42 PM EDT
Astronomical Twilight 4:28 AM EDT 10:22 PM EDT
Moon 6:49 PM EDT (6/21) 4:22 AM EDT (6/21)
Length of Visible Light 15h 23m
Length of Day
14h 24m
Waxing Gibbous, 95% of the Moon is Illuminated
Jun 21
Waxing Gibbous
Jun 23
Full
Jun 30
Last Quarter
Jul 8
New
Jul 15
First Quarter

Hourly Weather History & Observations

Time (EDT) Temp. Heat Index Dew Point Humidity Pressure Visibility Wind Dir Wind Speed Gust Speed Precip Events Conditions
12:58 AM 68.2 °F - 63.5 °F 85% 30.19 in 10.0 mi East 4.6 mph - N/A   Clear
1:58 AM 68.0 °F - 62.8 °F 83% 30.19 in 10.0 mi ENE 5.8 mph - N/A   Clear
2:58 AM 66.9 °F - 62.4 °F 85% 30.19 in 10.0 mi ENE 6.9 mph - N/A   Clear
3:58 AM 66.7 °F - 62.1 °F 85% 30.19 in 10.0 mi NE 5.8 mph - N/A   Clear
4:58 AM 66.2 °F - 61.0 °F 83% 30.19 in 10.0 mi NE 6.9 mph - N/A   Clear
5:58 AM 65.1 °F - 59.5 °F 82% 30.19 in 10.0 mi NE 8.1 mph - N/A   Clear
6:58 AM 64.8 °F - 58.8 °F 81% 30.22 in 10.0 mi NNE 5.8 mph - N/A   Clear
7:58 AM 66.9 °F - 58.6 °F 75% 30.24 in 10.0 mi ENE 9.2 mph - N/A   Clear
8:58 AM 70.7 °F - 54.7 °F 57% 30.24 in 10.0 mi NE 12.7 mph - N/A   Clear
9:58 AM 74.7 °F - 55.6 °F 51% 30.25 in 10.0 mi NE 10.4 mph - N/A   Clear
10:58 AM 77.7 °F - 54.1 °F 44% 30.25 in 10.0 mi NE 11.5 mph - N/A   Clear
11:58 AM 79.7 °F - 54.0 °F 41% 30.25 in 10.0 mi NNE 10.4 mph - N/A   Clear
12:58 PM 81.7 °F 81.3 °F 55.9 °F 41% 30.23 in 10.0 mi East 12.7 mph - N/A   Partly Cloudy
1:58 PM 82.9 °F 82.4 °F 57.0 °F 41% 30.22 in 10.0 mi North 9.2 mph - N/A   Partly Cloudy
2:58 PM 83.7 °F 82.3 °F 53.1 °F 35% 30.20 in 10.0 mi NE 8.1 mph - N/A   Partly Cloudy
3:58 PM 84.4 °F 82.8 °F 53.1 °F 34% 30.19 in 10.0 mi NNE 6.9 mph - N/A   Partly Cloudy
4:58 PM 84.9 °F - 52.7 °F 33% 30.17 in 10.0 mi ENE 8.1 mph - N/A   Partly Cloudy
5:58 PM 84.4 °F 83.2 °F 55.2 °F 37% 30.17 in 10.0 mi NNE 5.8 mph - N/A   Partly Cloudy
6:58 PM 83.1 °F 82.6 °F 57.0 °F 41% 30.17 in 10.0 mi ENE 5.8 mph - N/A   Partly Cloudy
7:58 PM 80.6 °F 81.1 °F 59.2 °F 48% 30.15 in 10.0 mi NE 1.2 mph - N/A   Partly Cloudy
8:58 PM 73.8 °F - 63.7 °F 71% 30.17 in 10.0 mi NE 3.5 mph - N/A   Partly Cloudy
9:58 PM 70.9 °F - 63.7 °F 78% 30.17 in 10.0 mi Calm Calm - N/A   Partly Cloudy
10:58 PM 70.9 °F - 62.2 °F 74% 30.19 in 10.0 mi NNE 4.6 mph - N/A   Partly Cloudy
11:58 PM 72.0 °F - 59.2 °F 64% 30.18 in 10.0 mi NNE 5.8 mph - N/A   Clear